Location: Drocourt
(49.0571°N, 1.7669°E)
Time: 06:10:35
(UTC+00:00)

SR - Pass Details

Date: 01 May 2024
Orbit: 579 x 859 km, 66.7° (Epoch: 26 May)

Event Time Altitude Azimuth Distance (km) Brightness Sun altitude
Exits shadow 23:37:05 45° 257° (WSW) 1,023 ? -25.4°
Maximum altitude 23:38:25 59° 310° (NW) 852 ? -25.4°
Drops below altitude 10° 23:43:19 10° 30° (NNE) 2,166 ? -25.5°
Sets 23:45:36 0° 35° (NE) 3,041 ? -25.5°
